Regional Weather Roundup
Issued by NWS Grand Forks, ND

Home | Current Version | Previous Version | Graphics & Text | Print | Product List | Glossary On
Versions: 1 2 3 4 5 6 7 8 9 10 11 12 13 14 15 16 17 18 19 20 21 22 23 24 25 26 27 28 29 30 31 32 33 34 35 36 37 38 39 40 41 42 43 44 45 46 47 48 49 50
000
ASUS43 KFGF 040510
RWRFGF
PRAIRIE TO PINES  WEATHER ROUNDUP
NATIONAL WEATHER SERVICE EASTERN NORTH DAKOTA/GRAND FORKS ND
1200 AM CDT WED MAY 04 2016

 **SATELLITE DATA USED TO AUGMENT SKY COVER AT AUTOMATED STATIONS**
 *****  WEATHER ACROSS EASTERN NORTH DAKOTA  *****

CITY           SKY/WX    TMP DP  RH WIND       PRES   REMARKS
GRAND FORKS    CLEAR     40  29  64 N6        30.01R
GRAND FRKS AFB CLEAR     47  32  56 N10       30.01S
DEVILS LAKE    CLEAR     46  32  58 NE6       30.05S
FARGO          CLEAR     53  27  36 N16       29.98R
WAHPETON ARPT  CLEAR     52  28  40 N12       29.96R
$$

 ***** WEATHER ACROSS CENTRAL AND WESTERN NORTH DAKOTA  *****

CITY           SKY/WX    TMP DP  RH WIND       PRES   REMARKS
BISMARCK       CLEAR     50  30  46 S3        30.07R
MINOT          CLEAR     55  26  32 E5        30.06R
JAMESTOWN      CLEAR     46  29  51 N10       30.02R
MINOT AFB      CLEAR     47  28  47 SE6       30.05R
GARRISON         N/A     49  32  52 NE6       30.06R
WILLISTON      CLEAR     51  41  68 N5        30.05S
DICKINSON      CLEAR     55  37  50 E6        30.07R
HETTINGER      CLEAR     47  37  68 CALM      30.10R
$$

 *****  OTHER AIRPORT OBSERVATIONS IN OUR AREA  *****

CITY           SKY/WX    TMP DP  RH WIND       PRES   REMARKS
WALHALLA       FAIR      41  32  70 NW7       30.05R
GRAFTON AIRPOR FAIR      45  32  61 N8        30.04S
VALLEY CITY AR FAIR      48  32  53 N12       30.03S
CANDO          FAIR      39  32  75 NW6       30.08S
CAVALIER APRT  FAIR      46  34  61 N7        30.04R
GWINNER        FAIR      52  34  50 N13       30.00R
ROLLA          FAIR      39  27  60 N3        30.08R
 ***** THE ABOVE OBSERVATIONS ARE NON NWS ARE NOT QUALITY
       CONTROLLED AND MAY MIS-REPORT RAIN FOR SNOW...
$$

  *****  WEATHER ACROSS NORTHERN MINNESOTA  *****

CITY           SKY/WX    TMP DP  RH WIND       PRES   REMARKS
FLAG ISLAND    PTCLDY    48  37  66 NW10      29.97R
WARROAD        CLEAR     45  37  76 NW7       29.99S
ROSEAU         CLEAR     45  36  70 N9        29.99S
HALLOCK        CLEAR     45  32  61 N8        30.02R
THF RVR FALLS  CLEAR     46  34  61 N10       30.00S
BAUDETTE       CLEAR     45  32  60 N7        29.96R
WASKISH        CLEAR     45  34  65 N5        29.96R
CROOKSTON      CLEAR     48  34  57 N9        30.00R
STEPHEN NDAWN    N/A     43  28  56 N3          N/A
GREENBUSH NDAW   N/A     45  36  70 N8          N/A
$$
  *****  WEATHER ACROSS CENTRAL AND WEST MINNESOTA  *****

CITY           SKY/WX    TMP DP  RH WIND       PRES   REMARKS
FOSSTON        CLEAR     43  34  70 N8        29.98R
BEMIDJI        CLEAR     47  33  57 N6        29.94R
PARK RAPIDS    CLEAR     52  32  46 N9        29.92R
ELBOW LAKE     FAIR      51  33  50 N9        29.94R
WADENA         CLEAR     48  32  53 N6        29.92R
DETROIT LAKES  CLEAR     46  34  61 NW7       29.96R
MOORHEAD       CLEAR     50  27  40 N14       29.98R
FERGUS FALLS   CLEAR     52  32  46 N7        29.93R
MORRIS MN      CLEAR     52  30  43 N10       29.92R
STAPLES        CLEAR     50  30  46 N9        29.91R
$$
  *****  WEATHER ELSEWHERE ACROSS MINNESOTA  *****

CITY           SKY/WX    TMP DP  RH WIND       PRES   REMARKS
DULUTH         CLEAR     47  32  56 N10       29.87R
INTRNTL FALLS  CLEAR     33  30  88 NW3       29.93S
ELY            CLEAR     45  30  57 N6        29.88S
CLOQUET        CLEAR     48  28  46 N7        29.88R
WHEATON        CLEAR     52  34  50 NW9       29.97R
BRAINERD       CLEAR     52  32  46 NE12      29.90R
HIBBING        CLEAR     43  30  60 N8        29.90R
ALEXANDRIA     CLEAR     52  31  44 N12       29.92R
SAINT CLOUD    CLEAR     51  31  46 N9        29.86R
MINNEAPOLIS    CLEAR     58  29  33 N12       29.81R
$$

  *****  WEATHER ACROSS SOUTH DAKOTA  *****

CITY           SKY/WX    TMP DP  RH WIND       PRES   REMARKS
SIOUX FALLS    CLEAR     51  33  50 N9        29.92R
BROOKINGS      CLEAR     48  32  53 N9        29.93R
WATERTOWN      CLEAR     46  31  55 N10       29.95R
HURON          CLEAR     50  32  50 N9        29.97R
SISSETON         N/A     49  31  49 N12       29.95R
ABERDEEN       CLEAR     48  31  51 N10       30.00R
MITCHELL       CLEAR     53  37  54 N9        29.96R
PIERRE         CLEAR     52  38  58 N9        30.00R
MOBRIDGE       CLEAR     53  32  44 NE12      30.01R
RAPID CITY     CLEAR     52  39  61 NW12      30.11R
$$

  *****  SOME WEATHER IN NEARBY STATES *****

CITY           SKY/WX    TMP DP  RH WIND       PRES   REMARKS
GLASGOW MT     CLEAR     64  37  36 S5        30.03F
GREAT FALLS MT CLEAR     60  39  45 SE9       30.02S
CHEYENNE WY    CLEAR     45  34  65 NW7       30.27R
SCOTTSBLUFF NE CLEAR     50  41  71 N5        30.17R
OMAHA NE       PTCLDY    62  44  51 W10       29.84F
DES MOINES IA  CLOUDY    60  45  57 W10       29.76F
DAVENPORT IA   LGT RAIN  58  44  60 SW16      29.67F
CHICAGO IL     LGT RAIN  58  41  53 SW13      29.65F
EAU CLAIRE WI  CLEAR     48  45  89 N6        29.77R
LA CROSSE WI   CLEAR     50  46  86 N6        29.72R
$$

  *****  SOME NATIONAL WEATHER *****

CITY           SKY/WX    TMP DP  RH WIND       PRES   REMARKS
LA GUARDIA NY  CLOUDY    51  51 100 SE6       29.83R FOG
RALEIGH NC     FOG       64  63  96 NW6       29.76S VSB 1
ATLANTA GA     PTCLDY    62  51  67 NW10      29.85S
NEW ORLEANS LA PTCLDY    70  59  68 N10       29.95R
OKLAHOMA CITY  CLEAR     53  49  86 SW6       30.05S
ALBUQUERQUE NM CLEAR     61  30  31 E15       30.24R
SALT LAKE CITY CLEAR     61  38  42 S3        30.16R
LOS ANGELES CA MOCLDY    57  53  86 W3        29.96R
BOISE ID       PTCLDY    69  31  24 SE7       30.01S
SEATTLE WA     CLOUDY    61  50  67 NE10      30.09R
$$

*** WEATHER ACROSS MANITOBA...SASKATCHEWAN AND ONTARIO ***
                ***ONTARIO***

CITY           SKY/WX    TMP DP  RH WIND       PRES   REMARKS
GERALDTON      LGT SNOW  34  34 100 NW7       29.77S FOG
THUNDER BAY    MOCLDY    45  34  65 N9G21     29.81R
SIOUX LOOKOUT  CLEAR     43  34  70 N7        29.91R
TORONTO        PTCLDY    45  37  76 E2        29.76F
BIG TROUT LK   CLEAR     27  23  86 N7        30.00S WCI  19
PICKLE LAKE    NOT AVBL
DRYDEN         CLEAR     43  32  65 N6        29.93R
KENORA         CLEAR     45  32  61 N7        29.97S
$$
                *** MANITOBA***

CITY           SKY/WX    TMP DP  RH WIND       PRES   REMARKS
BRANDON        CLEAR     41  25  52 E5        30.07R
DAUPHIN        CLEAR     37  25  60 SW3       30.07R
ISLAND LAKE    PTCLDY    32  23  69 NE2       30.07S
PILOT MOUND      N/A     45  30  57 NE5         N/A
THE PAS        CLEAR     46  36  66 SE7       30.01F
THOMPSON       NOT AVBL
WINNIPEG       CLEAR     39  32  75 N3        30.05R
LYNN LAKE      MOCLDY    45  28  53 SE6       29.96F
CHURCHILL      MOCLDY    23  19  86 S3        30.12F
GILLAM         CLEAR     27  18  69 E3        30.10F
$$
                ***SASKATCHEWAN***

CITY           SKY/WX    TMP DP  RH WIND       PRES   REMARKS
ESTEVAN        PTCLDY    50  37  62 SE9       30.04S
KINDERSLEY     CLEAR     59  36  41 S10       29.93S
LLOYDMINSTER   CLEAR     63  39  42 S9        29.87S
PRINCE ALBERT  MOCLDY    55  39  54 E7        29.91F
REGINA         CLEAR     57  36  44 SE9       30.02S
YORKTON        CLEAR     52  34  50 SE10      30.02R
N. BATTLEFORD  CLEAR     55  39  54 SE6       29.91R
LA RONGE       CLEAR     55  36  47 SE5       29.88S
SASKATOON      PTCLDY    59  43  55 SE8       29.93F
SWIFT CURRENT  CLEAR     59  41  51 S13       29.99S
$$
NOTE: THESE ARE AUTOMATED STATIONS WITH LIMITED QUALITY CONTROL
      "FAIR" INDICATES FEW OR NO CLOUDS BELOW 12,000 FEET WITH NO
      SIGNIFICANT WEATHER AND/OR OBSTRUCTIONS TO VISIBILITY.
      SKY/WX - SKY CONDITION AND SIGNIFICANT WEATHER.
      TMP - AIR TEMPERATURE.    DP   - DEWPOINT TEMPERATURE.
      RH  - RELATIVE HUMIDITY.  PRES - PRESSURE.
      HX  - HEAT INDEX.         WCI  - WIND CHILL INDEX.
$




USA.gov is the U.S. government's official web portal to all federal, state and local government web resources and services.